Zurück zum Katalog

FENGYUN 1C DEB

AktivSSO
NORAD 36280·DEBRIS·🇨🇳 China

Gestartet May 10, 1999 von Taiyuan Satellite Launch Center

Loading…

Nächste Überflüge (nächste 24 Stunden)

TLE

AlterndSource: Space-Track

Epoche: Sep 10, 2026, 08:08 UTC

1 36280U 99025DXH 26253.33934377  .00000803  00000-0  46704-3 0  9996
2 36280  98.7454 280.1099 0062262  17.4565 355.8108 14.10480605901822

Verfolge FENGYUN 1C DEB in Echtzeit mit AllMySat

Download on the App Store